Weather History for Buckland, AK

Change the Weather History Date:

Friday, January 18, 2013

  Actual Average (PASK) Record (PASK)
Temperature  
Mean Temperature -32 °F -  
Max Temperature -27 °F 2 °F 26 °F (2002)
Min Temperature -36 °F -6 °F -43 °F (1999)
Degree Days  
Heating Degree Days 96    
Moisture  
Dew Point -    
Average Humidity    
Maximum Humidity    
Minimum Humidity    
Precipitation  
Precipitation 0.00 in - - ()
Sea Level Pressure  
Sea Level Pressure 30.59 in    
Wind  
Wind Speed 0 mph (SSE)    
Max Wind Speed 6 mph    
Max Gust Speed -    
Visibility 10 miles    
Events      
Averages and records for this station are not official NWS values.
T = Trace of Precipitation, MM = Missing Value Source: NWS Daily Summary

Daily Weather History Graph

Daily Weather History Graph

Search for Another Location

Airport:

Trip Planner

Search our weather history database for the weather conditions in past years. The results will help you decide how hot, cold, wet, or windy it might be!

Date:

Astronomy

Jan. 18, 2013 Rise Set
Actual Time 11:25 AM AKST 4:25 PM AKST
Civil Twilight 10:11 AM AKST 5:39 PM AKST
Nautical Twilight 9:02 AM AKST 6:48 PM AKST
Astronomical Twilight 8:00 AM AKST 7:50 PM AKST
Moon 11:29 AM AKST (1/18) 3:00 AM AKST (1/18)
Length of Visible Light 7h 28m
Length of Day
4h 59m
Waxing Crescent, 49% of the Moon is Illuminated
Jan 18
Waxing Crescent
Jan 18
First Quarter
Jan 26
Full
Feb 3
Last Quarter
Feb 9
New

Hourly Weather History & Observations

Time (AKST) Temp. Windchill Dew Point Humidity Pressure Visibility Wind Dir Wind Speed Gust Speed Precip Events Conditions
12:16 AM -27.4 °F - - N/A% 30.49 in 10.0 mi Calm Calm - N/A   Unknown
12:36 AM -27.4 °F - - N/A% 30.50 in 10.0 mi Calm Calm - N/A   Unknown
12:56 AM -27.4 °F - - N/A% 30.50 in 10.0 mi Calm Calm - N/A   Unknown
1:16 AM -29.2 °F - - N/A% 30.51 in 10.0 mi Calm Calm - N/A   Unknown
1:36 AM -29.2 °F - - N/A% 30.51 in 10.0 mi Calm Calm - N/A   Unknown
1:56 AM -27.4 °F - - N/A% 30.52 in 10.0 mi Calm Calm - N/A   Unknown
2:16 AM -29.2 °F - - N/A% 30.53 in 10.0 mi Calm Calm - N/A   Unknown
2:36 AM -29.2 °F - - N/A% 30.53 in 10.0 mi Calm Calm - N/A   Unknown
2:56 AM -29.2 °F - - N/A% 30.54 in 10.0 mi Calm Calm - N/A   Unknown
3:16 AM -31.0 °F - - N/A% 30.55 in 10.0 mi Calm Calm - N/A   Unknown
3:36 AM -31.0 °F - - N/A% 30.55 in 10.0 mi Calm Calm - N/A   Unknown
3:56 AM -29.2 °F - - N/A% 30.55 in 10.0 mi Calm Calm - N/A   Unknown
4:16 AM -32.8 °F - - N/A% 30.56 in 10.0 mi Calm Calm - N/A   Unknown
4:36 AM -32.8 °F - - N/A% 30.56 in 10.0 mi Calm Calm - N/A   Unknown
4:56 AM -32.8 °F - - N/A% 30.57 in 10.0 mi Calm Calm - N/A   Unknown
5:16 AM -32.8 °F - - N/A% 30.57 in 10.0 mi Calm Calm - N/A   Unknown
5:36 AM -32.8 °F - - N/A% 30.57 in 10.0 mi Calm Calm - N/A   Unknown
5:56 AM -32.8 °F - - N/A% 30.58 in 9.0 mi Calm Calm - N/A   Unknown
6:16 AM -31.0 °F - - N/A% 30.58 in 10.0 mi Calm Calm - N/A   Unknown
6:36 AM -29.2 °F - - N/A% 30.58 in 10.0 mi Calm Calm - N/A   Unknown
6:56 AM -32.8 °F - - N/A% 30.58 in 10.0 mi Calm Calm - N/A   Unknown
7:16 AM -34.6 °F - - N/A% 30.59 in 10.0 mi Calm Calm - N/A   Unknown
7:36 AM -32.8 °F -45.3 °F - N/A% 30.59 in 10.0 mi SSE 3.5 mph - N/A   Unknown
7:56 AM -32.8 °F - - N/A% 30.60 in 10.0 mi Calm Calm - N/A   Unknown
8:16 AM -32.8 °F - - N/A% 30.60 in 10.0 mi Calm Calm - N/A   Unknown
8:36 AM -34.6 °F - - N/A% 30.60 in 10.0 mi Calm Calm - N/A   Unknown
8:56 AM -34.6 °F -47.4 °F - N/A% 30.60 in 10.0 mi South 3.5 mph - N/A   Unknown
9:16 AM -32.8 °F - - N/A% 30.61 in 10.0 mi Calm Calm - N/A   Unknown
9:36 AM -32.8 °F - - N/A% 30.61 in 10.0 mi Calm Calm - N/A   Unknown
9:56 AM -32.8 °F - - N/A% 30.62 in 10.0 mi Calm Calm - N/A   Unknown
10:16 AM -32.8 °F - - N/A% 30.62 in 10.0 mi Calm Calm - N/A   Unknown
10:36 AM -34.6 °F - - N/A% 30.62 in 10.0 mi Calm Calm - N/A   Unknown
10:56 AM -34.6 °F - - N/A% 30.62 in 10.0 mi Calm Calm - N/A   Unknown
11:16 AM -34.6 °F - - N/A% 30.63 in 10.0 mi Calm Calm - N/A   Unknown
11:36 AM -34.6 °F - - N/A% 30.63 in 10.0 mi Calm Calm - N/A   Unknown
11:56 AM -34.6 °F - - N/A% 30.63 in 10.0 mi Calm Calm - N/A   Unknown
12:16 PM -32.8 °F - - N/A% 30.64 in 10.0 mi Calm Calm - N/A   Unknown
12:36 PM -32.8 °F - - N/A% 30.64 in 10.0 mi Calm Calm - N/A   Unknown
12:56 PM -32.8 °F - - N/A% 30.65 in 10.0 mi Calm Calm - N/A   Unknown
1:16 PM -32.8 °F - - N/A% 30.64 in 10.0 mi Calm Calm - N/A   Unknown
1:36 PM -32.8 °F -48.2 °F - N/A% 30.64 in 10.0 mi South 4.6 mph - N/A   Unknown
1:56 PM -32.8 °F - - N/A% 30.64 in 10.0 mi Calm Calm - N/A   Unknown
2:16 PM -32.8 °F - - N/A% 30.64 in 10.0 mi Calm Calm - N/A   Unknown
2:36 PM -32.8 °F -45.3 °F - N/A% 30.64 in 10.0 mi SSE 3.5 mph - N/A   Unknown
2:56 PM -32.8 °F -48.2 °F - N/A% 30.64 in 10.0 mi SSE 4.6 mph - N/A   Unknown
3:16 PM -32.8 °F - - N/A% 30.63 in 10.0 mi Calm Calm - N/A   Unknown
3:36 PM -32.8 °F - - N/A% 30.63 in 10.0 mi Calm Calm - N/A   Unknown
3:56 PM -32.8 °F - - N/A% 30.62 in 10.0 mi Calm Calm - N/A   Unknown
4:16 PM -32.8 °F - - N/A% 30.62 in 10.0 mi Calm Calm - N/A   Unknown
4:36 PM -34.6 °F - - N/A% 30.62 in 10.0 mi Calm Calm - N/A   Unknown
4:56 PM -34.6 °F - - N/A% 30.62 in 10.0 mi Calm Calm - N/A   Unknown
5:16 PM -34.6 °F - - N/A% 30.62 in 8.0 mi Calm Calm - N/A   Unknown
5:36 PM -34.6 °F - - N/A% 30.62 in 10.0 mi Calm Calm - N/A   Unknown
5:56 PM -34.6 °F - - N/A% 30.62 in 10.0 mi Calm Calm - N/A   Unknown
6:16 PM -34.6 °F - - N/A% 30.62 in 10.0 mi Calm Calm - N/A   Unknown
6:36 PM -34.6 °F - - N/A% 30.62 in 10.0 mi Calm Calm - N/A   Unknown
6:56 PM -34.6 °F - - N/A% 30.61 in 10.0 mi Calm Calm - N/A   Unknown
7:16 PM -34.6 °F - - N/A% 30.61 in 10.0 mi Calm Calm - N/A   Unknown
7:36 PM -34.6 °F - - N/A% 30.61 in 10.0 mi Calm Calm - N/A   Unknown
7:56 PM -34.6 °F - - N/A% 30.61 in 10.0 mi Calm Calm - N/A   Unknown
8:16 PM -34.6 °F - - N/A% 30.60 in 10.0 mi Calm Calm - N/A   Unknown
8:36 PM -36.4 °F - - N/A% 30.60 in 10.0 mi Calm Calm - N/A   Unknown
8:56 PM -36.4 °F - - N/A% 30.59 in 10.0 mi Calm Calm - N/A   Unknown
9:16 PM -34.6 °F - - N/A% 30.59 in 10.0 mi Calm Calm - N/A   Unknown
9:36 PM -36.4 °F - - N/A% 30.59 in 10.0 mi Calm Calm - N/A   Unknown
9:56 PM -34.6 °F - - N/A% 30.59 in 10.0 mi Calm Calm - N/A   Unknown
10:16 PM -34.6 °F - - N/A% 30.58 in 10.0 mi Calm Calm - N/A   Unknown
10:36 PM -34.6 °F - - N/A% 30.58 in 10.0 mi Calm Calm - N/A   Unknown
10:56 PM -36.4 °F - - N/A% 30.57 in 10.0 mi Calm Calm - N/A   Unknown
11:16 PM -36.4 °F - - N/A% 30.57 in 10.0 mi Calm Calm - N/A   Unknown
11:36 PM -36.4 °F -52.4 °F - N/A% 30.56 in 10.0 mi South 4.6 mph - N/A   Unknown
11:56 PM -36.4 °F -54.8 °F - N/A% 30.56 in 10.0 mi SSE 5.8 mph - N/A   Unknown